OE5OVL-13 Weather Reports


time (UTC)temp
F
wind
direction
speed
knots
gust
knots
rain 1hr
in
rain 24hr
in
rain mn
in
humidity
%
barometer
mb
20260505101255 77 0.0 0.0 0.00 0.00 0.00 43 734.8
20260505095744 76 0.0 0.0 0.00 0.00 0.00 43 734.0
20260505094232 75 0.0 0.0 0.00 0.00 0.00 46 733.3
20260505092720 73 0.0 0.0 0.00 0.00 0.00 46 732.3
20260505091208 72 0.0 0.0 0.00 0.00 0.00 48 731.4
20260505085657 71 0.0 0.0 0.00 0.00 0.00 52 730.9
20260505084145 70 0.0 0.0 0.00 0.00 0.00 53 730.3
20260505082633 69 0.0 0.0 0.00 0.00 0.00 53 729.4
20260505075610 67 0.0 0.0 0.00 0.00 0.00 58 728.3
20260505074058 66 0.0 0.0 0.00 0.00 0.00 58 727.8
20260505072546 65 0.0 0.0 0.00 0.00 0.00 59 727.2
20260505071034 65 0.0 0.0 0.00 0.00 0.00 61 726.7
20260505065523 64 0.0 0.0 0.00 0.00 0.00 61 726.3
20260505064011 64 0.0 0.0 0.00 0.00 0.00 60 726.1
20260505062459 63 0.0 0.0 0.00 0.00 0.00 63 725.8
20260505060947 63 0.0 0.0 0.00 0.00 0.00 65 725.4
20260505055435 62 0.0 0.0 0.00 0.00 0.00 66 724.9
20260505053923 61 0.0 0.0 0.00 0.00 0.00 66 724.2
20260505052411 60 0.0 0.0 0.00 0.00 0.00 68 723.6
20260505050900 59 0.0 0.0 0.00 0.00 0.00 69 723.0
20260505040812 57 0.0 0.0 0.00 0.00 0.00 69 721.9
20260505035300 57 0.0 0.0 0.00 0.00 0.00 68 721.9
20260505033748 57 0.0 0.0 0.00 0.00 0.00 68 721.9
20260505032237 57 0.0 0.0 0.00 0.00 0.00 68 721.8
20260505030725 57 0.0 0.0 0.00 0.00 0.00 67 721.9
20260505025213 58 0.0 0.0 0.00 0.00 0.00 66 722.2
20260505023701 58 0.0 0.0 0.00 0.00 0.00 64 722.6
20260505022152 59 0.0 0.0 0.00 0.00 0.00 62 722.9
20260505020637 59 0.0 0.0 0.00 0.00 0.00 62 723.1
20260505015125 58 0.0 0.0 0.00 0.00 0.00 62 722.7
20260505013623 59 0.0 0.0 0.00 0.00 0.00 61 723.0
20260505012101 60 0.0 0.0 0.00 0.00 0.00 59 723.7
20260505010549 61 0.0 0.0 0.00 0.00 0.00 57 724.0
20260505005037 61 0.0 0.0 0.00 0.00 0.00 59 724.0
20260505003525 61 0.0 0.0 0.00 0.00 0.00 61 724.0
20260505002013 61 0.0 0.0 0.00 0.00 0.00 59 724.5
20260505000501 61 0.0 0.0 0.00 0.00 0.00 58 724.5
20260504234949 61 0.0 0.0 0.00 0.00 0.00 58 724.4
20260504231925 62 0.0 0.0 0.00 0.00 0.00 56 724.7
20260504230422 62 0.0 0.0 0.00 0.00 0.00 54 725.0
20260504224912 62 0.0 0.0 0.00 0.00 0.00 54 725.2
20260504223350 63 0.0 0.0 0.00 0.00 0.00 54 725.6
20260504221842 63 0.0 0.0 0.00 0.00 0.00 54 725.3
20260504220326 64 0.0 0.0 0.00 0.00 0.00 51 726.1
20260504214814 65 0.0 0.0 0.00 0.00 0.00 49 726.7
20260504213302 65 0.0 0.0 0.00 0.00 0.00 50 726.9
20260504211751 66 0.0 0.0 0.00 0.00 0.00 46 727.3
20260504210238 66 0.0 0.0 0.00 0.00 0.00 48 727.4
20260504204726 67 0.0 0.0 0.00 0.00 0.00 48 727.8
20260504203214 67 0.0 0.0 0.00 0.00 0.00 46 728.3
20260504201703 69 0.0 0.0 0.00 0.00 0.00 44 729.1
20260504200151 69 0.0 0.0 0.00 0.00 0.00 44 729.4
20260504194639 71 0.0 0.0 0.00 0.00 0.00 41 730.5
20260504193127 72 0.0 0.0 0.00 0.00 0.00 40 731.1
20260504191615 72 0.0 0.0 0.00 0.00 0.00 39 731.6
20260504184551 75 0.0 0.0 0.00 0.00 0.00 35 733.3
20260504183039 76 0.0 0.0 0.00 0.00 0.00 35 734.0
20260504181527 77 0.0 0.0 0.00 0.00 0.00 33 734.5
20260504180016 79 0.0 0.0 0.00 0.00 0.00 31 735.8
20260504174504 80 0.0 0.0 0.00 0.00 0.00 32 736.5
20260504172952 83 0.0 0.0 0.00 0.00 0.00 30 738.4
20260504171440 84 0.0 0.0 0.00 0.00 0.00 29 739.1